Year,Month,Day,Hour,Minute,Value (Times are PST for temperature in C)
2014,04,22,00,00,7.20
2014,04,22,00,01,7.20
2014,04,22,00,02,7.20
2014,04,22,00,03,7.20
2014,04,22,00,04,7.20
2014,04,22,00,05,7.20
2014,04,22,00,06,7.20
2014,04,22,00,07,7.20
2014,04,22,00,08,7.20
2014,04,22,00,09,7.20
2014,04,22,00,10,7.20
2014,04,22,00,11,7.20
2014,04,22,00,12,7.20
2014,04,22,00,13,7.20
2014,04,22,00,14,7.10
2014,04,22,00,15,7.10
2014,04,22,00,16,7.10
2014,04,22,00,17,7.10
2014,04,22,00,18,7.10
2014,04,22,00,19,7.10
2014,04,22,00,20,7.10
2014,04,22,00,21,7.10
2014,04,22,00,22,7.10
2014,04,22,00,23,7.10
2014,04,22,00,24,7.10
2014,04,22,00,25,7.10
2014,04,22,00,26,7.10
2014,04,22,00,27,7.10
2014,04,22,00,28,7.10
2014,04,22,00,29,7.10
2014,04,22,00,30,7.20
2014,04,22,00,31,7.20
2014,04,22,00,32,7.20
2014,04,22,00,33,7.20
2014,04,22,00,34,7.20
2014,04,22,00,35,7.10
2014,04,22,00,36,7.20
2014,04,22,00,37,7.20
2014,04,22,00,38,7.20
2014,04,22,00,39,7.20
2014,04,22,00,40,7.20
2014,04,22,00,41,7.20
2014,04,22,00,42,7.20
2014,04,22,00,43,7.20
2014,04,22,00,44,7.20
2014,04,22,00,45,7.20
2014,04,22,00,46,7.20
2014,04,22,00,47,7.20
2014,04,22,00,48,7.30
2014,04,22,00,49,7.20
2014,04,22,00,50,7.30
2014,04,22,00,51,7.30
2014,04,22,00,52,7.30
2014,04,22,00,53,7.20
2014,04,22,00,54,7.20
2014,04,22,00,55,7.20
2014,04,22,00,56,7.20
2014,04,22,00,57,7.20
2014,04,22,00,58,7.20
2014,04,22,00,59,7.20
2014,04,22,01,00,7.20
2014,04,22,01,01,7.20
2014,04,22,01,02,7.10
2014,04,22,01,03,7.10
2014,04,22,01,04,7.10
2014,04,22,01,05,7.10
2014,04,22,01,06,7.10
2014,04,22,01,07,7.00
2014,04,22,01,08,7.00
2014,04,22,01,09,7.00
2014,04,22,01,10,7.00
2014,04,22,01,11,6.90
2014,04,22,01,12,6.90
2014,04,22,01,13,6.90
2014,04,22,01,14,6.90
2014,04,22,01,15,6.90
2014,04,22,01,16,6.90
2014,04,22,01,17,6.90
2014,04,22,01,18,6.90
2014,04,22,01,19,6.90
2014,04,22,01,20,6.80
2014,04,22,01,21,6.80
2014,04,22,01,22,6.80
2014,04,22,01,23,6.80
2014,04,22,01,24,6.80
2014,04,22,01,25,6.80
2014,04,22,01,26,6.80
2014,04,22,01,27,6.80
2014,04,22,01,28,6.80
2014,04,22,01,29,6.80
2014,04,22,01,30,6.80
2014,04,22,01,31,6.80
2014,04,22,01,32,6.70
2014,04,22,01,33,6.70
2014,04,22,01,34,6.70
2014,04,22,01,35,6.70
2014,04,22,01,36,6.70
2014,04,22,01,37,6.70
2014,04,22,01,38,6.60
2014,04,22,01,39,6.60
2014,04,22,01,40,6.60
2014,04,22,01,41,6.60
2014,04,22,01,42,6.60
2014,04,22,01,43,6.60
2014,04,22,01,44,6.60
2014,04,22,01,45,6.50
2014,04,22,01,46,6.50
2014,04,22,01,47,6.50
2014,04,22,01,48,6.50
2014,04,22,01,49,6.40
2014,04,22,01,50,6.40
2014,04,22,01,51,6.40
2014,04,22,01,52,6.40
2014,04,22,01,53,6.40
2014,04,22,01,54,6.40
2014,04,22,01,55,6.40
2014,04,22,01,56,6.40
2014,04,22,01,57,6.30
2014,04,22,01,58,6.30
2014,04,22,01,59,6.30
2014,04,22,02,00,6.30
2014,04,22,02,01,6.30
2014,04,22,02,02,6.30
2014,04,22,02,03,6.30
2014,04,22,02,04,6.30
2014,04,22,02,05,6.30
2014,04,22,02,06,6.20
2014,04,22,02,07,6.30
2014,04,22,02,08,6.30
2014,04,22,02,09,6.30
2014,04,22,02,10,6.30
2014,04,22,02,11,6.30
2014,04,22,02,12,6.30
2014,04,22,02,13,6.30
2014,04,22,02,14,6.30
2014,04,22,02,15,6.30
2014,04,22,02,16,6.20
2014,04,22,02,17,6.20
2014,04,22,02,18,6.20
2014,04,22,02,19,6.20
2014,04,22,02,20,6.20
2014,04,22,02,21,6.20
2014,04,22,02,22,6.20
2014,04,22,02,23,6.10
2014,04,22,02,24,6.10
2014,04,22,02,25,6.10
2014,04,22,02,26,6.10
2014,04,22,02,27,6.10
2014,04,22,02,28,6.10
2014,04,22,02,29,6.00
2014,04,22,02,30,6.00
2014,04,22,02,31,6.00
2014,04,22,02,32,6.00
2014,04,22,02,33,6.00
2014,04,22,02,34,6.00
2014,04,22,02,35,5.90
2014,04,22,02,36,5.90
2014,04,22,02,37,5.90
2014,04,22,02,38,5.90
2014,04,22,02,39,5.90
2014,04,22,02,40,5.90
2014,04,22,02,41,5.90
2014,04,22,02,42,5.90
2014,04,22,02,43,5.90
2014,04,22,02,44,5.90
2014,04,22,02,45,5.90
2014,04,22,02,46,5.90
2014,04,22,02,47,5.90
2014,04,22,02,48,5.90
2014,04,22,02,49,5.80
2014,04,22,02,50,5.80
2014,04,22,02,51,5.80
2014,04,22,02,52,5.80
2014,04,22,02,53,5.80
2014,04,22,02,54,5.80
2014,04,22,02,55,5.80
2014,04,22,02,56,5.80
2014,04,22,02,57,5.80
2014,04,22,02,58,5.80
2014,04,22,02,59,5.80
2014,04,22,03,00,5.80
2014,04,22,03,01,5.80
2014,04,22,03,02,5.80
2014,04,22,03,03,5.80
2014,04,22,03,04,5.80
2014,04,22,03,05,5.80
2014,04,22,03,06,5.80
2014,04,22,03,07,5.80
2014,04,22,03,08,5.90
2014,04,22,03,09,5.80
2014,04,22,03,10,5.80
2014,04,22,03,11,5.80
2014,04,22,03,12,5.80
2014,04,22,03,13,5.80
2014,04,22,03,14,5.80
2014,04,22,03,15,5.80
2014,04,22,03,16,5.80
2014,04,22,03,17,5.80
2014,04,22,03,18,5.80
2014,04,22,03,19,5.80
2014,04,22,03,20,5.80
2014,04,22,03,21,5.80
2014,04,22,03,22,5.80
2014,04,22,03,23,5.80
2014,04,22,03,24,5.80
2014,04,22,03,25,5.80
2014,04,22,03,26,5.80
2014,04,22,03,27,5.80
2014,04,22,03,28,5.80
2014,04,22,03,29,5.80
2014,04,22,03,30,5.80
2014,04,22,03,31,5.80
2014,04,22,03,32,5.70
2014,04,22,03,33,5.70
2014,04,22,03,34,5.70
2014,04,22,03,35,5.70
2014,04,22,03,36,5.70
2014,04,22,03,37,5.70
2014,04,22,03,38,5.70
2014,04,22,03,39,5.70
2014,04,22,03,40,5.70
2014,04,22,03,41,5.70
2014,04,22,03,42,5.70
2014,04,22,03,43,5.70
2014,04,22,03,44,5.70
2014,04,22,03,45,5.70
2014,04,22,03,46,5.70
2014,04,22,03,47,5.70
2014,04,22,03,48,5.70
2014,04,22,03,49,5.60
2014,04,22,03,50,5.60
2014,04,22,03,51,5.60
2014,04,22,03,52,5.60
2014,04,22,03,53,5.60
2014,04,22,03,54,5.60
2014,04,22,03,55,5.60
2014,04,22,03,56,5.50
2014,04,22,03,57,5.50
2014,04,22,03,58,5.50
2014,04,22,03,59,5.50
2014,04,22,04,00,5.40
2014,04,22,04,01,5.40
2014,04,22,04,02,5.40
2014,04,22,04,03,5.30
2014,04,22,04,04,5.30
2014,04,22,04,05,5.30
2014,04,22,04,06,5.30
2014,04,22,04,07,5.30
2014,04,22,04,08,5.30
2014,04,22,04,09,5.30
2014,04,22,04,10,5.30
2014,04,22,04,11,5.30
2014,04,22,04,12,5.30
2014,04,22,04,13,5.20
2014,04,22,04,14,5.20
2014,04,22,04,15,5.20
2014,04,22,04,16,5.20
2014,04,22,04,17,5.20
2014,04,22,04,18,5.10
2014,04,22,04,19,5.10
2014,04,22,04,20,5.10
2014,04,22,04,21,5.10
2014,04,22,04,22,5.10
2014,04,22,04,23,5.00
2014,04,22,04,24,5.00
2014,04,22,04,25,5.00
2014,04,22,04,26,4.90
2014,04,22,04,27,4.90
2014,04,22,04,28,4.90
2014,04,22,04,29,4.90
2014,04,22,04,30,4.80
2014,04,22,04,31,4.80
2014,04,22,04,32,4.80
2014,04,22,04,33,4.80
2014,04,22,04,34,4.80
2014,04,22,04,35,4.80
2014,04,22,04,36,4.80
2014,04,22,04,37,4.80
2014,04,22,04,38,4.70
2014,04,22,04,39,4.80
2014,04,22,04,40,4.80
2014,04,22,04,41,4.70
2014,04,22,04,42,4.70
2014,04,22,04,43,4.70
2014,04,22,04,44,4.70
2014,04,22,04,45,4.70
2014,04,22,04,46,4.70
2014,04,22,04,47,4.60
2014,04,22,04,48,4.60
2014,04,22,04,49,4.60
2014,04,22,04,50,4.50
2014,04,22,04,51,4.50
2014,04,22,04,52,4.40
2014,04,22,04,53,4.40
2014,04,22,04,54,4.40
2014,04,22,04,55,4.30
2014,04,22,04,56,4.30
2014,04,22,04,57,4.30
2014,04,22,04,58,4.30
2014,04,22,04,59,4.20
2014,04,22,05,00,4.20
2014,04,22,05,01,4.20
2014,04,22,05,02,4.20
2014,04,22,05,03,4.20
2014,04,22,05,04,4.20
2014,04,22,05,05,4.20
2014,04,22,05,06,4.20
2014,04,22,05,07,4.20
2014,04,22,05,08,4.20
2014,04,22,05,09,4.20
2014,04,22,05,10,4.20
2014,04,22,05,11,4.10
2014,04,22,05,12,4.10
2014,04,22,05,13,4.10
2014,04,22,05,14,4.00
2014,04,22,05,15,4.00
2014,04,22,05,16,3.90
2014,04,22,05,17,3.90
2014,04,22,05,18,3.90
2014,04,22,05,19,3.90
2014,04,22,05,20,3.90
2014,04,22,05,21,3.90
2014,04,22,05,22,3.80
2014,04,22,05,23,3.80
2014,04,22,05,24,3.80
2014,04,22,05,25,3.80
2014,04,22,05,26,3.80
2014,04,22,05,27,3.80
2014,04,22,05,28,3.80
2014,04,22,05,29,3.80
2014,04,22,05,30,3.90
2014,04,22,05,31,3.90
2014,04,22,05,32,3.90
2014,04,22,05,33,4.00
2014,04,22,05,34,4.00
2014,04,22,05,35,4.00
2014,04,22,05,36,4.00
2014,04,22,05,37,4.00
2014,04,22,05,38,3.90
2014,04,22,05,39,3.90
2014,04,22,05,40,3.90
2014,04,22,05,41,3.80
2014,04,22,05,42,3.80
2014,04,22,05,43,3.80
2014,04,22,05,44,3.80
2014,04,22,05,45,3.80
2014,04,22,05,46,3.90
2014,04,22,05,47,3.90
2014,04,22,05,48,3.90
2014,04,22,05,49,3.90
2014,04,22,05,50,3.90
2014,04,22,05,51,3.90
2014,04,22,05,52,3.90
2014,04,22,05,53,3.90
2014,04,22,05,54,3.90
2014,04,22,05,55,3.90
2014,04,22,05,56,3.90
2014,04,22,05,57,3.90
2014,04,22,05,58,3.90
2014,04,22,05,59,3.80
2014,04,22,06,00,3.80
2014,04,22,06,01,3.80
2014,04,22,06,02,3.80
2014,04,22,06,03,3.70
2014,04,22,06,04,3.70
2014,04,22,06,05,3.70
2014,04,22,06,06,3.60
2014,04,22,06,07,3.60
2014,04,22,06,08,3.50
2014,04,22,06,09,3.50
2014,04,22,06,10,3.50
2014,04,22,06,11,3.40
2014,04,22,06,12,3.40
2014,04,22,06,13,3.30
2014,04,22,06,14,3.30
2014,04,22,06,15,3.30
2014,04,22,06,16,3.30
2014,04,22,06,17,3.30
2014,04,22,06,18,3.30
2014,04,22,06,19,3.30
2014,04,22,06,20,3.20
2014,04,22,06,21,3.20
2014,04,22,06,22,3.20
2014,04,22,06,23,3.10
2014,04,22,06,24,3.10
2014,04,22,06,25,3.10
2014,04,22,06,26,3.10
2014,04,22,06,27,3.10
2014,04,22,06,28,3.10
2014,04,22,06,29,3.10
2014,04,22,06,30,3.10
2014,04,22,06,31,3.10
2014,04,22,06,32,3.10
2014,04,22,06,33,3.10
2014,04,22,06,34,3.10
2014,04,22,06,35,3.10
2014,04,22,06,36,3.10
2014,04,22,06,37,3.10
2014,04,22,06,38,3.10
2014,04,22,06,39,3.10
2014,04,22,06,40,3.10
2014,04,22,06,41,3.10
2014,04,22,06,42,3.00
2014,04,22,06,43,3.00
2014,04,22,06,44,3.00
2014,04,22,06,45,2.90
2014,04,22,06,46,2.90
2014,04,22,06,47,2.90
2014,04,22,06,48,2.80
2014,04,22,06,49,2.80
2014,04,22,06,50,2.80
2014,04,22,06,51,2.80
2014,04,22,06,52,2.90
2014,04,22,06,53,2.90
2014,04,22,06,54,2.90
2014,04,22,06,55,2.90
2014,04,22,06,56,2.90
2014,04,22,06,57,2.90
2014,04,22,06,58,2.90
2014,04,22,06,59,2.90
2014,04,22,07,00,2.90
2014,04,22,07,01,2.90
2014,04,22,07,02,2.90
2014,04,22,07,03,2.90
2014,04,22,07,04,2.90
2014,04,22,07,05,2.90
2014,04,22,07,06,2.90
2014,04,22,07,07,2.90
2014,04,22,07,08,2.90
2014,04,22,07,09,2.90
2014,04,22,07,10,2.90
2014,04,22,07,11,2.90
2014,04,22,07,12,3.00
2014,04,22,07,13,3.00
2014,04,22,07,14,3.10
2014,04,22,07,15,3.10
2014,04,22,07,16,3.20
2014,04,22,07,17,3.20
2014,04,22,07,18,3.30
2014,04,22,07,19,3.30
2014,04,22,07,20,3.40
2014,04,22,07,21,3.40
2014,04,22,07,22,3.50
2014,04,22,07,23,3.50
2014,04,22,07,24,3.50
2014,04,22,07,25,3.60
2014,04,22,07,26,3.70
2014,04,22,07,27,3.70
2014,04,22,07,28,3.80
2014,04,22,07,29,3.90
2014,04,22,07,30,4.00
2014,04,22,07,31,4.10
2014,04,22,07,32,4.20
2014,04,22,07,33,4.30
2014,04,22,07,34,4.30
2014,04,22,07,35,4.40
2014,04,22,07,36,4.50
2014,04,22,07,37,4.50
2014,04,22,07,38,4.60
2014,04,22,07,39,4.70
2014,04,22,07,40,4.80
2014,04,22,07,41,4.90
2014,04,22,07,42,5.00
2014,04,22,07,43,5.10
2014,04,22,07,44,5.20
2014,04,22,07,45,5.30
2014,04,22,07,46,5.40
2014,04,22,07,47,5.40
2014,04,22,07,48,5.50
2014,04,22,07,49,5.50
2014,04,22,07,50,5.60
2014,04,22,07,51,5.70
2014,04,22,07,52,5.70
2014,04,22,07,53,5.70
2014,04,22,07,54,5.80
2014,04,22,07,55,5.80
2014,04,22,07,56,5.90
2014,04,22,07,57,5.90
2014,04,22,07,58,5.90
2014,04,22,07,59,5.90
2014,04,22,08,00,5.90
2014,04,22,08,01,5.80
2014,04,22,08,02,5.80
2014,04,22,08,03,5.80
2014,04,22,08,04,5.80
2014,04,22,08,05,5.80
2014,04,22,08,06,5.80
2014,04,22,08,07,5.70
2014,04,22,08,08,5.70
2014,04,22,08,09,5.80
2014,04,22,08,10,5.80
2014,04,22,08,11,5.80
2014,04,22,08,12,5.80
2014,04,22,08,13,5.80
2014,04,22,08,14,5.80
2014,04,22,08,15,5.90
2014,04,22,08,16,5.90
2014,04,22,08,17,6.00
2014,04,22,08,18,6.10
2014,04,22,08,19,6.10
2014,04,22,08,20,6.20
2014,04,22,08,21,6.20
2014,04,22,08,22,6.20
2014,04,22,08,23,6.20
2014,04,22,08,24,6.30
2014,04,22,08,25,6.20
2014,04,22,08,26,6.20
2014,04,22,08,27,6.20
2014,04,22,08,28,6.20
2014,04,22,08,29,6.20
2014,04,22,08,30,6.20
2014,04,22,08,31,6.20
2014,04,22,08,32,6.20
2014,04,22,08,33,6.20
2014,04,22,08,34,6.20
2014,04,22,08,35,6.20
2014,04,22,08,36,6.20
2014,04,22,08,37,6.10
2014,04,22,08,38,6.10
2014,04,22,08,39,6.10
2014,04,22,08,40,6.10
2014,04,22,08,41,6.10
2014,04,22,08,42,6.10
2014,04,22,08,43,6.20
2014,04,22,08,44,6.20
2014,04,22,08,45,6.20
2014,04,22,08,46,6.30
2014,04,22,08,47,6.40
2014,04,22,08,48,6.50
2014,04,22,08,49,6.60
2014,04,22,08,50,6.70
2014,04,22,08,51,6.70
2014,04,22,08,52,6.80
2014,04,22,08,53,6.80
2014,04,22,08,54,6.80
2014,04,22,08,55,6.80
2014,04,22,08,56,6.80
2014,04,22,08,57,6.80
2014,04,22,08,58,6.80
2014,04,22,08,59,6.80
2014,04,22,09,00,6.80
2014,04,22,09,01,6.90
2014,04,22,09,02,6.90
2014,04,22,09,03,6.90
2014,04,22,09,04,6.90
2014,04,22,09,05,7.00
2014,04,22,09,06,7.00
2014,04,22,09,07,7.00
2014,04,22,09,08,7.00
2014,04,22,09,09,7.00
2014,04,22,09,10,7.00
2014,04,22,09,11,7.10
2014,04,22,09,12,7.10
2014,04,22,09,13,7.20
2014,04,22,09,14,7.30
2014,04,22,09,15,7.30
2014,04,22,09,16,7.40
2014,04,22,09,17,7.40
2014,04,22,09,18,7.40
2014,04,22,09,19,7.50
2014,04,22,09,20,7.50
2014,04,22,09,21,7.50
2014,04,22,09,22,7.50
2014,04,22,09,23,7.50
2014,04,22,09,24,7.50
2014,04,22,09,25,7.50
2014,04,22,09,26,7.50
2014,04,22,09,27,7.50
2014,04,22,09,28,7.50
2014,04,22,09,29,7.50
2014,04,22,09,30,7.50
2014,04,22,09,31,7.50
2014,04,22,09,32,7.50
2014,04,22,09,33,7.50
2014,04,22,09,34,7.40
2014,04,22,09,35,7.40
2014,04,22,09,36,7.40
2014,04,22,09,37,7.40
2014,04,22,09,38,7.40
2014,04,22,09,39,7.50
2014,04,22,09,40,7.50
2014,04,22,09,41,7.60
2014,04,22,09,42,7.60
2014,04,22,09,43,7.60
2014,04,22,09,44,7.70
2014,04,22,09,45,7.80
2014,04,22,09,46,7.80
2014,04,22,09,47,7.80
2014,04,22,09,48,7.80
2014,04,22,09,49,7.80
2014,04,22,09,50,7.70
2014,04,22,09,51,7.70
2014,04,22,09,52,7.60
2014,04,22,09,53,7.60
2014,04,22,09,54,7.60
2014,04,22,09,55,7.60
2014,04,22,09,56,7.60
2014,04,22,09,57,7.60
2014,04,22,09,58,7.70
2014,04,22,09,59,7.80
2014,04,22,10,00,7.80
2014,04,22,10,01,7.90
2014,04,22,10,02,8.00
2014,04,22,10,03,8.00
2014,04,22,10,04,8.10
2014,04,22,10,05,8.10
2014,04,22,10,06,8.20
2014,04,22,10,07,8.30
2014,04,22,10,08,8.40
2014,04,22,10,09,8.50
2014,04,22,10,10,8.60
2014,04,22,10,11,8.60
2014,04,22,10,12,8.70
2014,04,22,10,13,8.70
2014,04,22,10,14,8.70
2014,04,22,10,15,8.70
2014,04,22,10,16,8.60
2014,04,22,10,17,8.60
2014,04,22,10,18,8.60
2014,04,22,10,19,8.60
2014,04,22,10,20,8.70
2014,04,22,10,21,8.80
2014,04,22,10,22,8.90
2014,04,22,10,23,9.00
2014,04,22,10,24,9.00
2014,04,22,10,25,9.10
2014,04,22,10,26,9.10
2014,04,22,10,27,9.20
2014,04,22,10,28,9.30
2014,04,22,10,29,9.30
2014,04,22,10,30,9.40
2014,04,22,10,31,9.50
2014,04,22,10,32,9.50
2014,04,22,10,33,9.50
2014,04,22,10,34,9.40
2014,04,22,10,35,9.30
2014,04,22,10,36,9.30
2014,04,22,10,37,9.30
2014,04,22,10,38,9.40
2014,04,22,10,39,9.50
2014,04,22,10,40,9.50
2014,04,22,10,41,9.60
2014,04,22,10,42,9.60
2014,04,22,10,43,9.60
2014,04,22,10,44,9.70
2014,04,22,10,45,9.70
2014,04,22,10,46,9.80
2014,04,22,10,47,9.90
2014,04,22,10,48,9.90
2014,04,22,10,49,9.90
2014,04,22,10,50,10.00
2014,04,22,10,51,10.00
2014,04,22,10,52,10.10
2014,04,22,10,53,10.10
2014,04,22,10,54,10.20
2014,04,22,10,55,10.30
2014,04,22,10,56,10.40
2014,04,22,10,57,10.60
2014,04,22,10,58,10.70
2014,04,22,10,59,10.80
2014,04,22,11,00,10.80
2014,04,22,11,01,10.70
2014,04,22,11,02,10.70
2014,04,22,11,03,10.70
2014,04,22,11,04,10.70
2014,04,22,11,05,10.80
2014,04,22,11,06,10.80
2014,04,22,11,07,10.80
2014,04,22,11,08,10.80
2014,04,22,11,09,10.90
2014,04,22,11,10,10.90
2014,04,22,11,11,11.00
2014,04,22,11,12,11.10
2014,04,22,11,13,11.10
2014,04,22,11,14,11.00
2014,04,22,11,15,11.00
2014,04,22,11,16,11.00
2014,04,22,11,17,11.00
2014,04,22,11,18,11.00
2014,04,22,11,19,11.00
2014,04,22,11,20,11.10
2014,04,22,11,21,11.00
2014,04,22,11,22,11.00
2014,04,22,11,23,11.00
2014,04,22,11,24,11.00
2014,04,22,11,25,11.00
2014,04,22,11,26,11.00
2014,04,22,11,27,11.00
2014,04,22,11,28,10.90
2014,04,22,11,29,10.80
2014,04,22,11,30,10.80
2014,04,22,11,31,10.70
2014,04,22,11,32,10.60
2014,04,22,11,33,10.60
2014,04,22,11,34,10.60
2014,04,22,11,35,10.70
2014,04,22,11,36,10.80
2014,04,22,11,37,10.90
2014,04,22,11,38,11.00
2014,04,22,11,39,11.10
2014,04,22,11,40,11.10
2014,04,22,11,41,11.10
2014,04,22,11,42,11.10
2014,04,22,11,43,11.10
2014,04,22,11,44,11.20
2014,04,22,11,45,11.30
2014,04,22,11,46,11.40
2014,04,22,11,47,11.40
2014,04,22,11,48,11.50
2014,04,22,11,49,11.50
2014,04,22,11,50,11.50
2014,04,22,11,51,11.40
2014,04,22,11,52,11.40
2014,04,22,11,53,11.30
2014,04,22,11,54,11.30
2014,04,22,11,55,11.20
2014,04,22,11,56,11.20
2014,04,22,11,57,11.20
2014,04,22,11,58,11.20
2014,04,22,11,59,11.20
2014,04,22,12,00,11.30
2014,04,22,12,01,11.30
2014,04,22,12,02,11.30
2014,04,22,12,03,11.30
2014,04,22,12,04,11.30
2014,04,22,12,05,11.30
2014,04,22,12,06,11.40
2014,04,22,12,07,11.40
2014,04,22,12,08,11.50
2014,04,22,12,09,11.50
2014,04,22,12,10,11.60
2014,04,22,12,11,11.60
2014,04,22,12,12,11.50
2014,04,22,12,13,11.50
2014,04,22,12,14,11.40
2014,04,22,12,15,11.40
2014,04,22,12,16,11.40
2014,04,22,12,17,11.50
2014,04,22,12,18,11.50
2014,04,22,12,19,11.60
2014,04,22,12,20,11.70
2014,04,22,12,21,11.70
2014,04,22,12,22,11.80
2014,04,22,12,23,11.90
2014,04,22,12,24,11.80
2014,04,22,12,25,11.80
2014,04,22,12,26,11.70
2014,04,22,12,27,11.70
2014,04,22,12,28,11.60
2014,04,22,12,29,11.60
2014,04,22,12,30,11.60
2014,04,22,12,31,11.60
2014,04,22,12,32,11.60
2014,04,22,12,33,11.60
2014,04,22,12,34,11.60
2014,04,22,12,35,11.60
2014,04,22,12,36,11.60
2014,04,22,12,37,11.50
2014,04,22,12,38,11.50
2014,04,22,12,39,11.40
2014,04,22,12,40,11.50
2014,04,22,12,41,11.50
2014,04,22,12,42,11.60
2014,04,22,12,43,11.70
2014,04,22,12,44,11.70
2014,04,22,12,45,11.70
2014,04,22,12,46,11.70
2014,04,22,12,47,11.70
2014,04,22,12,48,11.60
2014,04,22,12,49,11.50
2014,04,22,12,50,11.50
2014,04,22,12,51,11.50
2014,04,22,12,52,11.50
2014,04,22,12,53,11.60
2014,04,22,12,54,11.70
2014,04,22,12,55,11.70
2014,04,22,12,56,11.70
2014,04,22,12,57,11.60
2014,04,22,12,58,11.60
2014,04,22,12,59,11.60
2014,04,22,13,00,11.60
2014,04,22,13,01,11.60
2014,04,22,13,02,11.70
2014,04,22,13,03,11.70
2014,04,22,13,04,11.80
2014,04,22,13,05,11.90
2014,04,22,13,06,12.00
2014,04,22,13,07,12.10
2014,04,22,13,08,12.20
2014,04,22,13,09,12.20
2014,04,22,13,10,12.20
2014,04,22,13,11,12.20
2014,04,22,13,12,12.30
2014,04,22,13,13,12.40
2014,04,22,13,14,12.50
2014,04,22,13,15,12.60
2014,04,22,13,16,12.70
2014,04,22,13,17,12.80
2014,04,22,13,18,12.80
2014,04,22,13,19,12.70
2014,04,22,13,20,12.60
2014,04,22,13,21,12.60
2014,04,22,13,22,12.50
2014,04,22,13,23,12.50
2014,04,22,13,24,12.50
2014,04,22,13,25,12.60
2014,04,22,13,26,12.60
2014,04,22,13,27,12.70
2014,04,22,13,28,12.80
2014,04,22,13,29,12.80
2014,04,22,13,30,12.80
2014,04,22,13,31,12.90
2014,04,22,13,32,12.90
2014,04,22,13,33,13.00
2014,04,22,13,34,13.00
2014,04,22,13,35,13.10
2014,04,22,13,36,13.10
2014,04,22,13,37,13.10
2014,04,22,13,38,13.10
2014,04,22,13,39,13.00
2014,04,22,13,40,12.90
2014,04,22,13,41,12.80
2014,04,22,13,42,12.70
2014,04,22,13,43,12.70
2014,04,22,13,44,12.70
2014,04,22,13,45,12.80
2014,04,22,13,46,12.80
2014,04,22,13,47,12.90
2014,04,22,13,48,13.00
2014,04,22,13,49,13.10
2014,04,22,13,50,13.30
2014,04,22,13,51,13.50
2014,04,22,13,52,13.60
2014,04,22,13,53,13.70
2014,04,22,13,54,13.80
2014,04,22,13,55,14.00
2014,04,22,13,56,14.10
2014,04,22,13,57,14.00
2014,04,22,13,58,13.90
2014,04,22,13,59,13.80
2014,04,22,14,00,13.70
2014,04,22,14,01,13.60
2014,04,22,14,02,13.60
2014,04,22,14,03,13.60
2014,04,22,14,04,13.60
2014,04,22,14,05,13.60
2014,04,22,14,06,13.60
2014,04,22,14,07,13.60
2014,04,22,14,08,13.50
2014,04,22,14,09,13.60
2014,04,22,14,10,13.60
2014,04,22,14,11,13.60
2014,04,22,14,12,13.60
2014,04,22,14,13,13.70
2014,04,22,14,14,13.70
2014,04,22,14,15,13.70
2014,04,22,14,16,13.80
2014,04,22,14,17,13.80
2014,04,22,14,18,13.80
2014,04,22,14,19,13.90
2014,04,22,14,20,13.90
2014,04,22,14,21,14.00
2014,04,22,14,22,14.00
2014,04,22,14,23,14.00
2014,04,22,14,24,14.10
2014,04,22,14,25,14.00
2014,04,22,14,26,14.00
2014,04,22,14,27,14.00
2014,04,22,14,28,14.00
2014,04,22,14,29,14.00
2014,04,22,14,30,14.10
2014,04,22,14,31,14.10
2014,04,22,14,32,14.10
2014,04,22,14,33,14.20
2014,04,22,14,34,14.20
2014,04,22,14,35,14.30
2014,04,22,14,36,14.30
2014,04,22,14,37,14.30
2014,04,22,14,38,14.30
2014,04,22,14,39,14.30
2014,04,22,14,40,14.20
2014,04,22,14,41,14.20
2014,04,22,14,42,14.10
2014,04,22,14,43,14.00
2014,04,22,14,44,13.90
2014,04,22,14,45,14.00
2014,04,22,14,46,14.00
2014,04,22,14,47,14.10
2014,04,22,14,48,14.10
2014,04,22,14,49,14.10
2014,04,22,14,50,14.00
2014,04,22,14,51,13.90
2014,04,22,14,52,13.70
2014,04,22,14,53,13.60
2014,04,22,14,54,13.40
2014,04,22,14,55,13.30
2014,04,22,14,56,13.20
2014,04,22,14,57,13.20
2014,04,22,14,58,13.20
2014,04,22,14,59,13.20
2014,04,22,15,00,13.20
2014,04,22,15,01,13.20
2014,04,22,15,02,13.20
2014,04,22,15,03,13.20
2014,04,22,15,04,13.20
2014,04,22,15,05,13.10
2014,04,22,15,06,13.10
2014,04,22,15,07,13.00
2014,04,22,15,08,13.00
2014,04,22,15,09,12.90
2014,04,22,15,10,12.80
2014,04,22,15,11,12.80
2014,04,22,15,12,12.80
2014,04,22,15,13,12.80
2014,04,22,15,14,12.70
2014,04,22,15,15,12.70
2014,04,22,15,16,12.70
2014,04,22,15,17,12.80
2014,04,22,15,18,12.80
2014,04,22,15,19,12.90
2014,04,22,15,20,12.90
2014,04,22,15,21,12.90
2014,04,22,15,22,12.80
2014,04,22,15,23,12.80
2014,04,22,15,24,12.70
2014,04,22,15,25,12.60
2014,04,22,15,26,12.60
2014,04,22,15,27,12.60
2014,04,22,15,28,12.70
2014,04,22,15,29,12.70
2014,04,22,15,30,12.80
2014,04,22,15,31,12.90
2014,04,22,15,32,12.90
2014,04,22,15,33,12.90
2014,04,22,15,34,12.90
2014,04,22,15,35,12.80
2014,04,22,15,36,12.70
2014,04,22,15,37,12.60
2014,04,22,15,38,12.60
2014,04,22,15,39,12.60
2014,04,22,15,40,12.70
2014,04,22,15,41,12.80
2014,04,22,15,42,12.80
2014,04,22,15,43,12.90
2014,04,22,15,44,13.00
2014,04,22,15,45,13.00
2014,04,22,15,46,13.10
2014,04,22,15,47,13.20
2014,04,22,15,48,13.10
2014,04,22,15,49,13.00
2014,04,22,15,50,12.80
2014,04,22,15,51,12.60
2014,04,22,15,52,12.50
2014,04,22,15,53,12.30
2014,04,22,15,54,12.20
2014,04,22,15,55,12.10
2014,04,22,15,56,12.10
2014,04,22,15,57,12.10
2014,04,22,15,58,12.10
2014,04,22,15,59,12.10
2014,04,22,16,00,12.20
2014,04,22,16,01,12.30
2014,04,22,16,02,12.30
2014,04,22,16,03,12.30
2014,04,22,16,04,12.20
2014,04,22,16,05,12.20
2014,04,22,16,06,12.20
2014,04,22,16,07,12.20
2014,04,22,16,08,12.20
2014,04,22,16,09,12.20
2014,04,22,16,10,12.20
2014,04,22,16,11,12.20
2014,04,22,16,12,12.30
2014,04,22,16,13,12.30
2014,04,22,16,14,12.30
2014,04,22,16,15,12.30
2014,04,22,16,16,12.30
2014,04,22,16,17,12.20
2014,04,22,16,18,12.10
2014,04,22,16,19,12.10
2014,04,22,16,20,12.00
2014,04,22,16,21,12.00
2014,04,22,16,22,12.00
2014,04,22,16,23,11.90
2014,04,22,16,24,11.90
2014,04,22,16,25,11.80
2014,04,22,16,26,11.70
2014,04,22,16,27,11.60
2014,04,22,16,28,11.50
2014,04,22,16,29,11.50
2014,04,22,16,30,11.50
2014,04,22,16,31,11.50
2014,04,22,16,32,11.50
2014,04,22,16,33,11.50
2014,04,22,16,34,11.60
2014,04,22,16,35,11.60
2014,04,22,16,36,11.70
2014,04,22,16,37,11.80
2014,04,22,16,38,11.90
2014,04,22,16,39,11.90
2014,04,22,16,40,11.90
2014,04,22,16,41,11.90
2014,04,22,16,42,11.90
2014,04,22,16,43,12.00
2014,04,22,16,44,11.90
2014,04,22,16,45,11.90
2014,04,22,16,46,11.80
2014,04,22,16,47,11.70
2014,04,22,16,48,11.50
2014,04,22,16,49,11.40
2014,04,22,16,50,11.40
2014,04,22,16,51,11.30
2014,04,22,16,52,11.30
2014,04,22,16,53,11.30
2014,04,22,16,54,11.30
2014,04,22,16,55,11.30
2014,04,22,16,56,11.20
2014,04,22,16,57,11.20
2014,04,22,16,58,11.10
2014,04,22,16,59,11.10
2014,04,22,17,00,11.10
2014,04,22,17,01,11.10
2014,04,22,17,02,11.10
2014,04,22,17,03,11.20
2014,04,22,17,04,11.30
2014,04,22,17,05,11.40
2014,04,22,17,06,11.60
2014,04,22,17,07,11.70
2014,04,22,17,08,11.80
2014,04,22,17,09,11.80
2014,04,22,17,10,11.90
2014,04,22,17,11,12.00
2014,04,22,17,12,12.10
2014,04,22,17,13,12.10
2014,04,22,17,14,12.30
2014,04,22,17,15,12.30
2014,04,22,17,16,12.30
2014,04,22,17,17,12.20
2014,04,22,17,18,12.20
2014,04,22,17,19,12.10
2014,04,22,17,20,12.00
2014,04,22,17,21,12.00
2014,04,22,17,22,12.00
2014,04,22,17,23,12.00
2014,04,22,17,24,12.00
2014,04,22,17,25,12.10
2014,04,22,17,26,12.10
2014,04,22,17,27,12.10
2014,04,22,17,28,12.00
2014,04,22,17,29,12.10
2014,04,22,17,30,12.10
2014,04,22,17,31,12.00
2014,04,22,17,32,11.90
2014,04,22,17,33,11.80
2014,04,22,17,34,11.70
2014,04,22,17,35,11.70
2014,04,22,17,36,11.60
2014,04,22,17,37,11.50
2014,04,22,17,38,11.40
2014,04,22,17,39,11.30
2014,04,22,17,40,11.30
2014,04,22,17,41,11.20
2014,04,22,17,42,11.10
2014,04,22,17,43,11.10
2014,04,22,17,44,11.10
2014,04,22,17,45,11.00
2014,04,22,17,46,11.00
2014,04,22,17,47,10.90